星链-32324 (STARLINK-32324)

导读 | 星芒AI

STARLINK-32324 是 SpaceX Starlink 项目中的一颗低轨通信卫星,属于第三代星链卫星(Starlink Gen2)系列。该卫星于2024年发射,旨在增强全球互联网覆盖,提供更高速度和更低延迟的网络服务。它运行在约550公里高的轨道上,配备先进通信设备和激光链路,支持星间通信。作为星链星座的一部分,STARLINK-32324 有助于扩展 SpaceX 在全球宽带市场的影响力,并推动偏远地区网络接入的普及。

基本信息
目录编号:
61863
目录名称:
STARLINK-32324
国际标识:
2024-202U
轨道中心:
EARTH
卫星名称:
星链-32324
卫星全名:
星链-32324 (STARLINK-32324)
卫星状态:
在轨 (已飞行408 天)
发射日期:
2024-11-07 UTC
国别 :
美国 (US)
星等 :
--
轨道信息
数据来源 国际轨道数据
星历时间: 2025-12-19T15:40:51+0800
1天前
查看轨道信息
半长轴: 6861.244km
偏心率: 0.0001597
轨道倾角: 43.004°
近地点辐角 282.312°
升交点赤经 332.089°
平近点角 77.756°
近地点: 482.011km
远地点: 484.203km
周期: 94.268分钟
每日圈数: 15.275608
详细信息
固有亮度:
5
最大亮度:
2.5
卫星平台:
Starlink V1.0
覆盖范围:
全球
运营商:
太空探索技术公司
运营商所在国:
美国
制造商(研发单位):
太空探索技术公司
制造商所在国:
美国
使用方式:
暂无
卫星简介
Starlink 计划是 SpaceX 推出的全球卫星互联网项目,通过发射低轨道卫星,为全球尤其是偏远地区提供高速、低延迟的互联网服务。自 2019 年起,Starlink 已部署数千颗卫星,旨在缩小全球数字鸿沟,推动互联网普及。该项目还为军事、航空等行业提供通信支持,带来广泛经济效益。
2D轨道图
3D轨道图
轨道高度分析图
轨道倾角分析图
轨道综合分析图
查看轨道综合分析图